Location: Cargill Incorporated Elevator
(42.7294°N, 93.7333°W)
Time: 12:33:18
(UTC+00:00)

Helios 1A Rocket - Pass Details

Date: 18 April 2026
Orbit: 406 x 416 km, 98.3° (Epoch: 11 May)

Event Time Altitude Azimuth Distance (km) Brightness Sun altitude
Rises 00:58:16 0° 39° (NE) 2,378 5.8 -0.6°
Enters shadow 01:09:30 -9° 160° (SSE) 3,461 6.5 -2.6°
Exits shadow 01:20:57 -34° 180° (S) 7,819 8.5 -4.6°
Reaches altitude 10° 02:31:30 10° 360° (N) 1,511 5.5 -16.2°
Maximum altitude 02:34:34 42° 288° (WNW) 612 3.6 -16.7°
Drops below altitude 10° 02:37:36 10° 216° (SW) 1,489 5.1 -17.2°
Sets 02:39:37 0° 209° (SSW) 2,344 6.0 -17.5°
